Home   Weather   Bucharest   Past weeks

Flag for Romania Past Weather in Bucharest, Romania — Yesterday and Last 2 Weeks

Now
25 °F

Ice fog.


Feels Like: 19 °F
Forecast: 18 / 29 °F
Wind: 5 mph from West

Location: Bucharest / Imh

Current Time: Jan 24, 2017 at 9:51:28 pm

Latest Report: Jan 24, 2017 at 9:30 pm


Visibility: 2 mi

Pressure: 30.21 "Hg

Humidity: 93%

Dew Point: 23 °F

Location of BucharestLocation

Past Weather in Bucharest — Graph

°F

Bucharest Temperature Yesterday

Maximum temperature yesterday: 36 °F (at 1:00 pm)
Minimum temperature yesterday: 30 °F (at 1:30 am)
Average temperature yesterday: 33 °F

High & Low Weather Summary for the Past Weeks

 TemperatureHumidityPressure
High39 °F (Jan 15, 3:00 pm)100% (Jan 11, 2:30 am)30.66 "Hg (Jan 11, 2:30 am)
Low1 °F (Jan 10, 12:00 am)56% (Jan 15, 3:00 pm)29.47 "Hg (Jan 14, 7:00 am)
Average23 °F86%30.23 "Hg
* Reported Jan 9 8:00 pm — Jan 24 8:30 pm, Bucharest, Weather by CustomWeather, © 2017

Note: Actual official high and low records may vary slightly from our data, if they occured in-between our weather recording intervals... More about our weather records

Advertising

Bucharest Weather History for the Previous 24 Hours

Scroll right to see more
 ConditionsComfort  
Time TempWeatherWind HumidityBarometerVisibility
8:30 pm
Tue, Jan 24
27 °FIce fog.3 mph86%30.18 "Hg2 mi
8:00 pm27 °FIce fog.3 mph93%30.18 "Hg2 mi
7:30 pm28 °FIce fog.5 mph86%30.18 "Hg2 mi
7:00 pm28 °FIce fog.5 mph86%30.18 "Hg2 mi
6:30 pm30 °FIce fog.5 mph80%30.18 "Hg3 mi
6:00 pm30 °FClear.3 mph80%30.18 "Hg5 mi
5:30 pm32 °FClear.3 mph75%30.15 "Hg10 mi
5:00 pm34 °FSunny.5 mph70%30.15 "Hg10 mi
4:30 pm34 °FSunny.8 mph75%30.15 "Hg10 mi
4:00 pm36 °FPassing clouds.7 mph70%30.15 "HgN/A
3:30 pm36 °FPassing clouds.6 mph70%30.15 "HgN/A
3:00 pm36 °FPassing clouds.8 mph70%30.15 "HgN/A
2:30 pm36 °FPassing clouds.8 mph70%30.15 "HgN/A
2:00 pm37 °FPassing clouds.7 mph65%30.15 "HgN/A
1:30 pm36 °FPassing clouds.8 mph70%30.18 "HgN/A
1:00 pm36 °FPassing clouds.8 mph70%30.18 "HgN/A
12:30 pm36 °FScattered clouds.12 mph65%30.18 "HgN/A
12:00 pm36 °FPassing clouds.10 mph70%30.18 "HgN/A
11:30 am36 °FChilly.9 mph70%30.18 "HgN/A
10:30 am34 °FPartly sunny.5 mph81%30.21 "HgN/A
10:00 am32 °FOvercast.3 mph87%30.21 "HgN/A
9:30 am32 °FOvercast.3 mph87%30.21 "HgN/A
9:00 am32 °FOvercast.3 mph87%30.21 "Hg4 mi
8:30 am32 °FOvercast.3 mph87%30.21 "Hg5 mi
8:00 am30 °FOvercast.3 mph93%30.21 "Hg5 mi
7:30 am30 °FOvercast.3 mph93%30.18 "Hg4 mi
7:00 am32 °FOvercast.3 mph87%30.21 "Hg4 mi
6:30 am32 °FOvercast.3 mph87%30.21 "Hg4 mi
6:00 am32 °FIce fog.3 mph87%30.21 "Hg3 mi
5:30 am32 °FIce fog.2 mph93%30.21 "Hg3 mi
5:00 am32 °FIce fog.2 mph93%30.21 "Hg3 mi
4:30 am32 °FPassing clouds.3 mph93%30.21 "Hg4 mi
4:00 am32 °FPassing clouds.3 mph93%30.21 "Hg4 mi
3:30 am32 °FOvercast.1 mph93%30.24 "Hg6 mi
3:00 am32 °FOvercast.No wind93%30.24 "HgN/A
2:30 am32 °FOvercast.No wind93%30.24 "HgN/A
2:00 am32 °FOvercast.1 mph93%30.27 "HgN/A
1:30 am32 °FOvercast.No wind93%30.27 "HgN/A
1:00 am32 °FOvercast.No wind93%30.27 "HgN/A
12:30 am32 °FOvercast.No wind93%30.27 "HgN/A
12:00 am32 °FOvercast.No wind93%30.30 "Hg6 mi
11:30 pm
Mon, Jan 23
32 °FOvercast.2 mph93%30.30 "HgN/A
11:00 pm32 °FOvercast.No wind93%30.30 "Hg6 mi
10:30 pm32 °FOvercast.1 mph93%30.33 "Hg5 mi
10:00 pm32 °FOvercast.No wind93%30.33 "HgN/A
9:30 pm32 °FOvercast.1 mph93%30.33 "HgN/A
9:00 pm34 °FOvercast.2 mph87%30.33 "HgN/A
Weather by CustomWeather, © 2017

See weather overviewHow to use our weather pages